Location: Austin
(30.3000°N, 97.7500°W)
Time: 05:28:58
(UTC-05:00)

Cosmos 2058 - Pass Details

Date: 16 June 2025
Orbit: 532 x 546 km, 82.5° (Epoch: 07 July)

Event Time Altitude Azimuth Distance (km) Brightness Sun altitude
Exits shadow 04:22:38 33° 136° (SE) 924 3.9 -22.5°
Maximum altitude 04:23:49 43° 93° (E) 768 3.8 -22.3°
Drops below altitude 10° 04:27:36 10° 21° (NNE) 1,813 6.4 -21.7°
Sets 04:29:50 0° 15° (NNE) 2,707 7.4 -21.4°
